Preview of NWS' New Version of Forecast
This preview is not operational and should not be used for support decisions.

Regional Weather Roundup (RWR)

Issued by National Weather Service (NWS)

                            
000
ASUS42 KTBW 221118
RWRFL 
FLORIDA REGIONAL WEATHER ROUNDUP
NATIONAL WEATHER SERVICE TAMPA BAY RUSKIN FL
700 AM EDT SUN SEP 22 2019

NOTE: "FAIR" INDICATES FEW OR NO CLOUDS BELOW 12,000 FEET WITH NO
SIGNIFICANT WEATHER AND/OR OBSTRUCTIONS TO VISIBILITY.

FLZ001>010-012>015-112-114-115-221200-
PANHANDLE FLORIDA
  
CITY           SKY/WX    TMP DP  RH WIND       PRES   REMARKS
PENSACOLA      MOCLDY    73  71  93 NE6       30.13R                  
PENSACOLA NAS  LGT RAIN  78  69  73 NE8       30.12R                  
MILTON NAS     FAIR      62  62 100 NE3       30.15R                  
CRESTVIEW      FAIR      61  59  93 NE3       30.17R                  
DUKE FIELD     FAIR      68  64  88 E3        30.15R HAZE             
VALPARAISO     FAIR      72  65  80 NE3       30.14R                  
PANAMA CITY    FAIR      67  62  84 NE3       30.14R                  
TYNDALL AFB    FAIR      69  65  85 E5        30.13R                  
APALACHICOLA   FAIR      72  65  78 NE6       30.12R                  

STATION/POSITION SKY/WX   TEMP    WIND        PRES    WAVE   SWELL
                          AIR SEA DIR/SP/G            HT/PER HT/PER
                          (F)     (DEG/KT/KT) (MB)    (FT/S) (FT/S)
30.1N   87.6W              82 84  110/ 16/ 21 1019.5R   6/ 7
29.2N   88.2W              83     100/ 14/ 16 1018.8R   6/ 8   3/ 8
28.8N   86.0W                 84  110/ 16/ 17 1019.0R   6/ 6
PANAMA CITY BEAC           73 83   70/  5/  8 1020.9R
TOWER C                    78     100/ 16/ 18 1020.2R
28.5N   84.5W              81      80/ 14/ 17 1019.5R   5/ 6   2/ 6

$$
FLZ011-016>038-118-127-128-134-139-239-221200-
NORTH FLORIDA
  
CITY           SKY/WX    TMP DP  RH WIND       PRES   REMARKS
MARIANNA       FAIR      63  62  97 CALM      30.16R                  
TALLAHASSEE    FAIR      70  65  84 NE3       30.16R                  
PERRY          FAIR      68  66  93 NE3       30.15S                  
LIVE OAK       CLEAR     66  66 100 CALM      30.15S                  
CROSS CITY     FAIR      66  64  95 NE3       30.14R                  
LAKE CITY      CLOUDY    64  63  94 NE5       30.16R                  
GAINESVILLE    MOCLDY    69  64  84 CALM      30.17R                  
WILLISTON      FAIR      63  63  98 CALM      30.13S                  
PALATKA        MOCLDY    63  63 100 CALM      30.14S                  
MAYPORT NAS    FAIR      78  64  61 E13       30.14S                  
JACKSONVILLE   FAIR      68  64  87 CALM      30.15R                  
JAX NAS        FAIR      74  64  71 NE7       30.15R                  
JAX CECIL      MOCLDY    64  63  94 CALM      30.15R                  
FERNANDINA BEA FAIR      76  63  64 E7        30.15R                  
ST AUGUSTINE   FAIR     N/A N/A N/A E9        30.14S                  
PALM COAST     CLEAR     73  64  73 E3        30.13R                  

STATION/POSITION SKY/WX   TEMP    WIND        PRES    WAVE   SWELL
                          AIR SEA DIR/SP/G            HT/PER HT/PER
                          (F)     (DEG/KT/KT) (MB)    (FT/S) (FT/S)
SHELL POINT      NOT AVBL
KEATON BEACH               68      40/  5/  8 1020.8R
CEDAR KEY                  72      50/  8/ 10 1020.1R
FERNANDINA                 82 80   90/  3/  6 1021.8R
30.7N   81.3W                 81                N/A     4/15   2/15
MAYPORT                    79 81   90/  9/ 12 1021.1R
31.4N   80.9W              80 81   80/ 10/ 12 1021.6R   4/ 8   3/ 8
ST AUGUSTINE               80 80   80/ 15/ 17 1020.5R

$$
FLZ040-043>046-052-053-057-058-063-144-221200-
INTERIOR CENTRAL FLORIDA
  
CITY           SKY/WX    TMP DP  RH WIND       PRES   REMARKS
OCALA          FAIR      64  64 100 CALM      30.13S                  
LEESBURG       FAIR      70  64  81 NE6       30.12R                  
SANFORD        MOCLDY    71  65  81 NE7       30.11R                  
ORLANDO EXEC   FAIR      73  66  78 NE5       30.10R                  
ORLANDO INTL   FAIR      71  66  84 NE9       30.09S                  
KISSIMMEE      MOCLDY    73  67  81 NE5       30.10S                  
WINTER HAVEN   FAIR      74  67  78 E13       30.09S                  
LAKELAND       CLEAR     68  66  94 NE5       30.08S                  
BARTOW         FAIR      72  68  88 NE9       30.07S                  
SEBRING        FAIR      69  66  88 NE7       30.07R                  
OKEECHOBEE       N/A     68  64  88 NE5       30.05R                  

$$
FLZ041-047-054-059-064-141-147-221200-
EAST CENTRAL FLORIDA
  
CITY           SKY/WX    TMP DP  RH WIND       PRES   REMARKS
ORMOND BEACH   PTCLDY    77  64  65 E12       30.12                   
DAYTONA BEACH  FAIR      76  64  66 E5        30.11S                  
DELAND         FAIR      68  63  83 N3        30.12R                  
NEW SMYRNA BEA PTCLDY    77  63  61 E9        30.12                   
JFK SPACE CTR  CLEAR     76  64  67 E8        30.09S                  
TITUSVILLE     PTCLDY    79  64  61 E7        30.10                   
CAPE CANAVERAL FAIR      78  65  64 E13       30.08S                  
PATRICK AFB    FAIR      79  68  68 E16       30.08R                  
MELBOURNE      MOCLDY    79  66  64 E16       30.07R                  
VERO BEACH     MOCLDY    79  65  62 E13       30.06S                  
FT PIERCE      MOCLDY    78  64  61 E13       30.05S                  
STUART         PTCLDY    81  66  61 E17G29    30.05S                  

STATION/POSITION SKY/WX   TEMP    WIND        PRES    WAVE   SWELL
                          AIR SEA DIR/SP/G            HT/PER HT/PER
                          (F)     (DEG/KT/KT) (MB)    (FT/S) (FT/S)
28.5N   80.2W              80 82   70/ 19/ 23 1019.2R   8/ 7   5/15
28.9N   78.5W              79      50/ 19/ 25 1019.8R
TRIDENT PIER               78 81   50/ 12/ 16 1020.2R
28.4N   80.5W                 81                N/A     5/ 8   2/15
27.5N   80.2W                 82                N/A     7/15   5/15

$$
FLZ050-056-061-142-242-148-248-149-249-151-251-155-255-
160-260-221200-
WEST CENTRAL FLORIDA
  
CITY           SKY/WX    TMP DP  RH WIND       PRES   REMARKS
CRYSTAL RIVER  FAIR      64  63  94 CALM      30.12S                  
INVERNESS      FAIR      68  68 100 NE5       30.12S                  
BROOKSVILLE    FAIR      68  64  87 N7        30.11R                  
CLEARWATER AIR FAIR      70  66  88 NE5       30.08R                  
ST PETE CLEARW FAIR      75  67  76 NE9       30.07S                  
TAMPA INTL     FAIR      73  67  81 NE5       30.08S                  
TAMPA EXEC     FAIR      68  68 100 CALM      30.09R                  
PLANT CITY     FAIR      70  68  94 NE5       30.09F                  
MACDILL AFB    FAIR      71  67  87 E9        30.07S                  
PETER O KNIGHT CLOUDY    72  72 100 NE7       30.08S                  
ST PETERSBURG  FAIR      76  70  82 NE15      30.06R                  
SARASOTA       FAIR      74  69  85 NE7       30.04R                  
VENICE         CLOUDY    72  70  94 NE9       30.06R                  

STATION/POSITION SKY/WX   TEMP    WIND        PRES    WAVE   SWELL
                          AIR SEA DIR/SP/G            HT/PER HT/PER
                          (F)     (DEG/KT/KT) (MB)    (FT/S) (FT/S)
27.3N   84.2W                 84                N/A     7/ 6
CLEARWATER BEACH           73 83   40/  6/ 11 1018.6R
MIDDLE TAMPA BAY           76      70/ 15/ 18 1018.3R
VENICE                     72 84   40/  7/  9 1017.6R

$$
FLZ066-069-070-075>078-162-262-165-265-221200-
SOUTHWEST FLORIDA AND KEYS
  
CITY           SKY/WX    TMP DP  RH WIND       PRES   REMARKS
PUNTA GORDA    FAIR      69  69 100 NE7       30.07R                  
FT MYERS       FAIR      75  69  81 NE9       30.03R                  
SOUTHWEST INTL FAIR      74  70  87 NE8       30.03R                  
NAPLES         FAIR      75  72  90 NE8       30.01R                  
MARCO ISLAND   FAIR      74  70  87 NE8       30.02R                  
IMMOKALEE        N/A     72  68  88 NE8       30.01R                  
MARATHON       FAIR      79  75  87 E16G30    29.94R                  
KEY WEST NAS   FAIR      79  74  84 NE15      29.94S                  
KEY WEST INTL  MOCLDY    79  74  84 NE14G28   29.95R                  

STATION/POSITION SKY/WX   TEMP    WIND        PRES    WAVE   SWELL
                          AIR SEA DIR/SP/G            HT/PER HT/PER
                          (F)     (DEG/KT/KT) (MB)    (FT/S) (FT/S)
NAPLES                     76 82   40/  5/  8 1016.1R
26.0N   85.6W              83 85   70/ 19/ 23 1016.2R   7/ 7
DRY TORTUGAS               82      70/ 27/ 30 1014.1R
SOMBRERO KEY               80      60/ 25/ 33 1013.1R
LONG KEY                   80                 1013.1

$$
FLZ067-068-071>074-168-172>174-221200-
SOUTHEAST FLORIDA 
  
CITY           SKY/WX    TMP DP  RH WIND       PRES   REMARKS
W PALM BEACH   MOCLDY    80  68  66 E20       30.02S                  
BOCA RATON     MOCLDY    81  70  69 E23G35    30.01                   
FT LAUDER-EXEC FAIR      80  68  66 NE17G25   29.99S                  
FT LAUDERDALE  FAIR      79  67  66 E22G30    29.99S                  
POMPANO BEACH  MOCLDY    81  69  67 E15G25    30.00S                  
PEMBROKE PINES FAIR      80  66  62 NE20G28   30.01S                  
OPA LOCKA      FAIR      79  66  64 E15G25    30.00S                  
MIAMI          FAIR      80  67  64 NE15G22   29.99S                  
WEST KENDALL   FAIR      79  70  74 E13       29.98S                  
HOMESTEAD      CLOUDY    80  71  73 NE20G25   29.96S                  

STATION/POSITION SKY/WX   TEMP    WIND        PRES    WAVE   SWELL
                          AIR SEA DIR/SP/G            HT/PER HT/PER
                          (F)     (DEG/KT/KT) (MB)    (FT/S) (FT/S)
PORT EVERGLADES            81      60/ 21/ 26 1015.8
VIRGINIA KEY               81 82   40/ 14/ 19 1015.0
LAKE WORTH                 80 81   60/ 22/ 26 1017.6R
FOWEY ROCKS                81 83   60/ 29/ 31 1015.3R
SETTLEMENT POINT           79      60/ 17/ 20 1016.5R

$$